Skip Page Navigation
NASA JPL Caltech
NASA Logo - Jet Propulsion Laboratory + View the NASA Portal
+ Center for Near-Earth Object Studies
JPL Home Earth Solar System Stars & Galaxies Technology
JPL Solar System Dynamics
BODIES ORBITS EPHEMERIDES TOOLS PHYSICAL DATA DISCOVERY FAQ SITE MAP
IMPORTANT: The SSD Announcement email list is now available. Major changes are coming in the near future, including possible hostname and/or URL changes. To be notified of such changes, subscribe to this email list.

Please visit this page for more details.


JPL Small-Body Database Browser
Search: [ help ]  
27888 (1996 GG5)
Classification: Main-belt Asteroid          SPK-ID: 2027888
Ephemeris | Orbit Diagram | Orbital Elements | Mission Design | Physical Parameters | Discovery Circumstances | Close-Approach Data ]

[ show orbit diagram ]
Orbital Elements at Epoch 2458600.5 (2019-Apr-27.0) TDB
Reference: JPL 21 (heliocentric ecliptic J2000)
 Element Value Uncertainty (1-sigma)   Units 
e .2241561529608903 4.4089e-08  
a 2.424740579033592 9.9684e-09 au
q 1.88122005890926 1.1021e-07 au
i 4.475898342876809 4.0032e-06 deg
node 66.80818408533149 6.1151e-05 deg
peri 305.6899450318739 6.1853e-05 deg
M 222.7605910700058 1.2222e-05 deg
tp 2459126.242015798774
(2020-Oct-03.74201580)
4.9183e-05 TDB
period 1379.101871417296
3.78
8.5045e-06
2.328e-08
d
yr
n .261039454344319 1.6097e-09 deg/d
Q 2.968261099157924 1.2203e-08 au
  Orbit Determination Parameters
   # obs. used (total)      1014  
   data-arc span      8895 days (24.35 yr)  
   first obs. used      1995-01-02  
   last obs. used      2019-05-11  
   planetary ephem.      DE431  
   SB-pert. ephem.      SB431-N16  
   condition code      0  
   norm. resid. RMS      .56515  
   source      ORB  
   producer      Otto Matic  
   solution date      2019-May-30 03:29:09  

Additional Information
 Earth MOID = .885284 au 
 Jupiter MOID = 2.49679 au 
 T_jup = 3.472 
[ show covariance matrix ]

Ephemeris | Orbit Diagram | Orbital Elements | Mission Design | Physical Parameters | Discovery Circumstances | Close-Approach Data ]

Physical Parameter Table
Parameter Symbol Value Units Sigma Reference Notes
absolute magnitude H 15.0   n/a MPO435957  

27888 (1996 GG5)          Discovered 1996-Apr-11 by Spacewatch at Kitt Peak
Reference: 20010902/Numbers.arcLast Updated: 2004-04-19

[ show close-approach data ]
Alternate Designations
 1996 GG5 = 1995 AH4 
Ephemeris | Orbit Diagram | Orbital Elements | Mission Design | Physical Parameters | Discovery Circumstances | Close-Approach Data ]
ABOUT SSD CREDITS/AWARDS PRIVACY/COPYRIGHT GLOSSARY LINKS
FirstGov 2019-Dec-16 11:36 UT
(server date/time)  
NASA Home Page
Site Manager:   Ryan S. Park
Webmaster  Alan B. Chamberlin